Flag for Poland Weather past 2 weeks in Lódz, Poland

Now
80 °F

Passing clouds.


Feels Like: 79 °F
Forecast: 62 / 72 °F
Wind: 3 mph from West

Location: Lodz

Current Time: Jul 7, 2015 at 1:14:08 PM

Latest Report: Jul 7, 2015 at 12:00 PM


Visibility: 13 mi

Pressure: 30.00 "Hg

Humidity: 33%

Dew point: 48 °F

Location of LódzLocation

Historic Weather in Lódz — Graph

°F

Lódz temperature yesterday

Maximum temperature yesterday: 84 °F (at 1:00 PM)
Minimum temperature yesterday: 63 °F (at 4:00 AM)
Average temperature yesterday: 75 °F

Past Weeks' High & Low Weather Summary

 TemperatureHumidityPressure
High94 °F (Jul 5, 4:00 PM)95% (Jun 27, 5:00 AM)30.40 "Hg (Jun 27, 5:00 AM)
Low43 °F (Jun 25, 5:00 AM)20% (Jul 5, 4:00 PM)29.71 "Hg (Jun 23, 1:00 PM)
Average66 °F64%30.11 "Hg
* Reported Jun 22 11:00 AM — Jul 7 11:00 AM, Lódz, Weather by CustomWeather, © 2015

Note: Actual official high and low records may vary slightly from our data, if they occured in-between our weather recording intervals... More about our weather records

Advertising

Lódz weather history for previous 24 hours

 ConditionsComfort  
Time TempWeatherWind HumidityBarometerVisibility
11:00 AM
Tue, Jul 7
78 °FPassing clouds.6 mph37%30.02 "Hg12 mi
10:00 AM76 °FPassing clouds.5 mph40%30.03 "Hg12 mi
9:00 AM73 °FSunny.3 mph46%30.05 "Hg12 mi
8:00 AM69 °FSunny.1 mph59%30.06 "Hg12 mi
7:00 AM62 °FSunny.1 mph76%30.08 "Hg12 mi
6:00 AM56 °FSunny.1 mph89%30.09 "Hg11 mi
4:00 AM51 °FClear.1 mph91%30.10 "Hg6 mi
3:00 AM53 °FClear.1 mph91%30.10 "Hg8 mi
2:00 AM54 °FClear.No wind90%30.10 "Hg9 mi
1:00 AM56 °FClear.1 mph87%30.10 "Hg12 mi
12:00 AM59 °FClear.1 mph83%30.10 "Hg12 mi
10:00 PM
Mon, Jul 6
67 °FPassing clouds.1 mph64%30.07 "Hg12 mi
9:00 PM73 °FPartly sunny.2 mph52%30.06 "Hg12 mi
8:00 PM75 °FPartly sunny.3 mph49%30.04 "Hg12 mi
7:00 PM78 °FScattered clouds.6 mph49%30.03 "Hg12 mi
6:00 PM79 °FPartly sunny.7 mph52%30.02 "Hg12 mi
5:00 PM80 °FPartly sunny.8 mph52%30.01 "Hg12 mi
4:00 PM83 °FOvercast.10 mph49%29.99 "Hg12 mi
3:00 PM82 °FOvercast.7 mph53%30.00 "Hg12 mi
2:00 PM83 °FOvercast.9 mph49%29.99 "Hg12 mi
1:00 PM84 °FOvercast.8 mph48%29.98 "Hg12 mi
Weather by CustomWeather, © 2015

See weather overviewHow to use our weather pages